Retour au catalogue

DELTA 1 DEB

ActifSSO
NORAD 12250·DEBRIS·🇺🇸 United States

Lancé Mar 5, 1978 depuis Vandenberg Space Force Base

Loading…

Prochains Passages (prochaines 24 heures)

TLE

FraisSource: Space-Track

Époque: Sep 14, 2026, 14:14 UTC

1 12250U 78026CT  26257.59330122  .00000518  00000-0  21546-3 0  9995
2 12250  98.7884 292.7361 0022971 174.1824 338.8772 14.30572603360697

Suivez DELTA 1 DEB en temps réel avec AllMySat

Download on the App Store